This demonstration page uses our WeatherBlox Daily Observations layout. Learn more.

Left ArrowRight Arrow

41.12389, -100.76542

Hourly Observations for December 9, 2022

Temp ( °F °C ) Dew Point ( °F °C ) Humidity (%) Winds ( mph kmh ) Pressure ( in mb ) Visibility ( mi km ) Precip ( " mm )
12:53 am 00:53 Clear 19 -7.2 17 -8.3 92 92 WNW 3 6 30.22 1023 10 16 0.00 0.00
1:23 am 01:23 Clear with Mist and Fog 19 -7.2 18 -7.8 95 95 WNW 3 6 30.31 1026 2 3 0.00 0.00
1:26 am 01:26 Clear with Mist and Fog 18 -7.8 17 -8.3 96 96 WNW 3 6 30.32 1027 1 1 0.00 0.00
1:40 am 01:40 Mostly Clear with Freezing Fog 16 -8.9 14 -10 92 92 NNW 3 6 30.33 1027 1 1 0.00 0.00
1:53 am 01:53 Mostly Clear with Freezing Fog 16 -8.9 13 -10.6 87 87 Calm 30.22 1023 1 1 0.00 0.00
2:22 am 02:22 Mostly Clear with Freezing Fog 15 -9.4 12 -11.1 87 87 NW 3 6 30.33 1027 0 0 0.00 0.00
2:33 am 02:33 Hazy 17 -8.3 12 -11.1 80 80 NW 3 6 30.31 1026 1 1 0.00 0.00
2:51 am 02:51 Hazy 14 -10 9 -13 79 79 NNW 5 7 30.33 1027 1 1 0.00 0.00
2:53 am 02:53 Hazy 13 -10.6 8 -13.3 80 80 NW 5 7 30.23 1024 1 1 0.00 0.00
3:06 am 03:06 Mostly Clear with Mist and Fog 16 -8.9 12 -11.1 84 84 W 6 9 30.34 1027 1 2 0.00 0.00
3:13 am 03:13 Mostly Clear with Freezing Fog 20 -6.7 16 -8.9 84 84 W 6 9 30.31 1027 1 1 0.00 0.00
3:32 am 03:32 Hazy 16 -8.9 10 -12.2 77 77 WNW 5 7 30.34 1027 0 0 0.00 0.00
3:39 am 03:39 Clear with Freezing Fog 17 -8.3 13 -10.6 83 83 NW 3 6 30.32 1027 1 1 0.00 0.00
3:46 am 03:46 Clear with Mist and Fog 17 -8.3 13 -10.6 83 83 NW 5 7 30.32 1027 4 6 0.00 0.00
3:53 am 03:53 Clear 17 -8.3 12 -11.1 80 80 NW 6 9 30.23 1024 10 16 0.00 0.00
4:53 am 04:53 Clear 14 -10 9 -12.8 80 80 NW 6 9 30.23 1024 10 16 0.00 0.00
5:53 am 05:53 Clear 15 -9.4 9 -12.8 76 76 WNW 6 9 30.25 1024 10 16 0.00 0.00
6:53 am 06:53 Hazy 15 -9.4 8 -13.3 73 73 NW 6 9 30.23 1024 6 10 0.00 0.00
7:53 am 07:53 Clear 12 -11.1 6 -14.4 76 76 Calm 30.26 1025 10 16 0.00 0.00
8:53 am 08:53 Sunny 18 -7.8 12 -11.1 77 77 Calm 30.23 1024 10 16 0.00 0.00
9:53 am 09:53 Sunny 27 -2.8 19 -7.2 72 72 WNW 3 6 30.19 1022 10 16 0.00 0.00
10:53 am 10:53 Sunny 28 -2.2 22 -5.6 77 77 W 5 7 30.19 1023 10 16 0.00 0.00
11:53 am 11:53 Sunny 32 0 24 -4.4 72 72 W 3 6 30.18 1022 10 16 0.00 0.00
12:53 pm 12:53 Sunny 38 3.3 28 -2.2 67 67 Calm 30.14 1021 10 16 0.00 0.00
1:53 pm 13:53 Sunny 43 6.1 31 -0.6 62 62 VRB 5 7 30.09 1019 10 16 0.00 0.00
2:53 pm 14:53 Sunny 47 8.3 26 -3.3 44 44 S 8 13 30.06 1018 10 16 0.00 0.00
3:53 pm 15:53 Sunny 48 8.9 20 -6.7 32 32 S 13 20 30.04 1017 10 16 0.00 0.00
4:53 pm 16:53 Sunny 42 5.6 20 -6.7 41 41 SSE 10 17 30.04 1017 10 16 0.00 0.00
5:53 pm 17:53 Clear 36 2.2 22 -5.6 56 56 E 6 9 30.06 1018 10 16 0.00 0.00
6:53 pm 18:53 Clear 34 1.1 22 -5.6 61 61 SE 7 11 30.08 1019 10 16 0.00 0.00
7:53 pm 19:53 Clear 28 -2.2 20 -6.7 71 71 ESE 6 9 30.11 1020 10 16 0.00 0.00
8:53 pm 20:53 Clear 26 -3.3 20 -6.7 77 77 ESE 10 17 30.09 1019 10 16 0.00 0.00
9:53 pm 21:53 Clear 25 -3.9 19 -7.2 78 78 ESE 9 15 30.08 1019 10 16 0.00 0.00
10:53 pm 22:53 Clear 25 -3.9 18 -7.8 74 74 NW 3 6 30.09 1019 10 16 0.00 0.00
11:53 pm 23:53 Clear 23 -5 16 -8.9 74 74 WNW 5 7 30.10 1019 10 16 0.00 0.00

Powered by AerisWeather